Change the Weather History Date:

Monday, May 21, 2012

  Actual Average Record
Temperature  
Mean Temperature 62 °F -  
Max Temperature 64 °F 69 °F 88 °F (2013)
Min Temperature 59 °F 50 °F 37 °F (2002)
Degree Days  
Heating Degree Days 4    
Growing Degree Days 12 (Base 50)    
Moisture  
Dew Point 55 °F    
Average Humidity 80    
Maximum Humidity 88    
Minimum Humidity 45    
Precipitation  
Precipitation 0.00 in - - ()
Sea Level Pressure  
Sea Level Pressure 30.11 in    
Wind  
Wind Speed 5 mph (ENE)    
Max Wind Speed 8 mph    
Max Gust Speed -    
Visibility 4 miles    
Events Rain , Thunderstorm    
Averages and records for this station are not official NWS values.
T = Trace of Precipitation, MM = Missing Value Source: NWS Daily Summary

Daily Weather History Graph

Daily Weather History Graph

Search for Another Location

Airport or City:

Trip Planner

Search our weather history database for the weather conditions in past years. The results will help you decide how hot, cold, wet, or windy it might be!

Date:

Astronomy

May. 21, 2012 Rise Set
Actual Time 5:33 AM EDT 8:13 PM EDT
Civil Twilight 5:01 AM EDT 8:44 PM EDT
Nautical Twilight 4:21 AM EDT 9:24 PM EDT
Astronomical Twilight 3:36 AM EDT 10:10 PM EDT
Moon 5:54 AM EDT (5/21) 9:01 PM EDT (5/21)
Length of Visible Light 15h 43m
Length of Day
14h 39m
New Moon, 0% of the Moon is Illuminated
May 21
New Moon
May 28
First Quarter
Jun 4
Full
Jun 11
Last Quarter
Jun 19
New

Hourly Weather History & Observations

Time (EDT) Temp. Dew Point Humidity Pressure Visibility Wind Dir Wind Speed Gust Speed Precip Events Conditions
12:51 AM 64.4 °F 46.4 °F 52% 30.20 in 10.0 mi East 3.5 mph - N/A   Overcast
1:51 AM 62.6 °F 48.2 °F 59% 30.19 in 10.0 mi ENE 6.9 mph - N/A   Overcast
2:51 AM 60.8 °F 50.0 °F 68% 30.18 in 10.0 mi NE 6.9 mph - N/A   Mostly Cloudy
3:52 AM 60.8 °F 48.2 °F 63% 30.17 in 7.0 mi NNE 5.8 mph - N/A   Overcast
4:51 AM 60.8 °F 51.8 °F 72% 30.17 in 7.0 mi NE 4.6 mph - N/A   Overcast
5:51 AM 60.8 °F 51.8 °F 72% 30.17 in 7.0 mi NE 8.1 mph - N/A   Overcast
6:51 AM 60.8 °F 53.6 °F 77% 30.17 in 5.0 mi NE 5.8 mph - N/A   Haze
7:37 AM 59.0 °F 53.6 °F 82% 30.18 in 3.0 mi East 6.9 mph - N/A Rain Light Rain
7:51 AM 60.8 °F 53.6 °F 77% 30.17 in 3.0 mi NE 6.9 mph - N/A   Haze
8:51 AM 59.0 °F 53.6 °F 82% 30.17 in 3.0 mi Variable 5.8 mph - N/A Rain Light Rain
9:25 AM 59.0 °F 55.4 °F 88% 30.19 in 1.5 mi SSE 8.1 mph - N/A Thunderstorm Overcast
9:39 AM 59.0 °F 37.4 °F 45% 30.18 in 0.8 mi ENE 6.9 mph - N/A Rain Heavy Rain Showers
9:54 AM 59.0 °F 55.4 °F 88% 30.18 in 3.0 mi ENE 6.9 mph - N/A Rain Rain
9:57 AM 59.0 °F 55.4 °F 88% 30.17 in 3.0 mi Variable 5.8 mph - N/A Rain Rain
10:19 AM 59.0 °F 55.4 °F 88% 30.16 in 5.0 mi Variable 6.9 mph - N/A Rain Light Rain
10:42 AM 60.8 °F 55.4 °F 82% 30.16 in 5.0 mi ENE 5.8 mph - N/A Rain Light Rain
11:51 AM 60.8 °F 57.2 °F 88% 30.14 in 3.0 mi NE 5.8 mph - N/A Rain Rain
12:51 PM 62.6 °F 57.2 °F 82% 30.12 in 4.0 mi ENE 4.6 mph - N/A Rain Rain
1:27 PM 62.6 °F 57.2 °F 82% 30.11 in 3.0 mi East 4.6 mph - N/A Rain Rain
2:02 PM 62.6 °F 57.2 °F 82% - 4.0 mi East 6.9 mph - N/A Rain Light Rain
2:51 PM 62.6 °F 57.2 °F 82% 30.09 in 3.0 mi Variable 6.9 mph - N/A Rain Light Rain
3:51 PM 62.6 °F 59.0 °F 88% 30.08 in 3.0 mi Calm Calm - N/A   Overcast
4:27 PM 62.6 °F 59.0 °F 88% 30.06 in 4.0 mi East 5.8 mph - N/A   Light Drizzle
4:51 PM 62.6 °F 57.2 °F 82% 30.06 in 4.0 mi ENE 6.9 mph - N/A   Overcast
5:51 PM 62.6 °F 59.0 °F 88% 30.04 in 4.0 mi NE 4.6 mph - N/A Rain Light Rain
6:51 PM 62.6 °F 59.0 °F 88% 30.04 in 3.0 mi ENE 4.6 mph - N/A   Overcast
7:22 PM 62.6 °F 59.0 °F 88% 30.04 in 1.0 mi ENE 3.5 mph - N/A Rain Light Rain
7:29 PM 62.6 °F 59.0 °F 88% 30.04 in 2.0 mi East 4.6 mph - N/A Rain Rain
7:51 PM 62.6 °F 57.2 °F 82% 30.03 in 3.0 mi ENE 5.8 mph - N/A   Overcast
8:51 PM 62.6 °F 57.2 °F 82% 30.02 in 2.0 mi NE 4.6 mph - N/A   Overcast
9:51 PM 60.8 °F 57.2 °F 88% 30.01 in 2.0 mi NE 4.6 mph - N/A Rain Light Rain
10:07 PM 60.8 °F 57.2 °F 88% 30.01 in 2.0 mi NE 4.6 mph - N/A Rain Light Rain
10:23 PM 62.6 °F 57.2 °F 82% 30.01 in 3.0 mi Variable 3.5 mph - N/A Rain Light Rain
10:51 PM 60.8 °F 57.2 °F 88% 30.01 in 2.0 mi ENE 4.6 mph - N/A Rain Rain
11:50 PM 60.8 °F 57.2 °F 88% 30.00 in 4.0 mi Calm Calm - N/A   Drizzle